Time,TemperatureF,DewpointF,PressureIn,WindDirection,WindDirectionDegrees,WindSpeedMPH,WindSpeedGustMPH,Humidity,HourlyPrecipIn,Conditions,Clouds,dailyrainin,SoftwareType,DateUTC
2013-09-05 00:05:00,75.1,74.0,30.04,ESE,108,0.0,0.0,95,0.00,,,0.00,weatherlink.com 1.10,2013-09-05 05:05:00,
2013-09-05 00:20:00,74.6,73.0,30.04,North,9,0.0,0.0,95,0.00,,,0.00,weatherlink.com 1.10,2013-09-05 05:20:00,
2013-09-05 00:36:00,74.4,73.0,30.03,ENE,60,1.0,1.0,96,0.00,,,0.00,weatherlink.com 1.10,2013-09-05 05:36:00,
2013-09-05 00:51:00,74.2,73.0,30.03,NNE,18,0.0,0.0,96,0.00,,,0.00,weatherlink.com 1.10,2013-09-05 05:51:00,
2013-09-05 01:06:00,73.8,73.0,30.02,NNE,16,1.0,1.0,96,0.00,,,0.00,weatherlink.com 1.10,2013-09-05 06:06:00,
2013-09-05 01:21:00,73.7,73.0,30.02,SSE,155,0.0,1.0,96,0.00,,,0.00,weatherlink.com 1.10,2013-09-05 06:21:00,
2013-09-05 01:36:00,73.4,72.0,30.02,SSE,165,0.0,0.0,96,0.00,,,0.00,weatherlink.com 1.10,2013-09-05 06:36:00,
2013-09-05 01:51:00,73.4,72.0,30.03,SSE,160,0.0,1.0,96,0.00,,,0.00,weatherlink.com 1.10,2013-09-05 06:51:00,
2013-09-05 02:06:00,73.0,72.0,30.02,SSE,160,0.0,0.0,96,0.00,,,0.00,weatherlink.com 1.10,2013-09-05 07:06:00,
2013-09-05 02:21:00,72.9,72.0,30.02,ENE,69,0.0,1.0,96,0.00,,,0.00,weatherlink.com 1.10,2013-09-05 07:21:00,
2013-09-05 02:36:00,72.5,71.0,30.01,ENE,67,0.0,0.0,96,0.00,,,0.00,weatherlink.com 1.10,2013-09-05 07:36:00,
2013-09-05 02:51:00,72.5,71.0,30.01,NE,50,0.0,1.0,96,0.00,,,0.00,weatherlink.com 1.10,2013-09-05 07:51:00,
2013-09-05 03:06:00,72.2,71.0,30.01,NE,50,0.0,0.0,96,0.00,,,0.00,weatherlink.com 1.10,2013-09-05 08:06:00,
2013-09-05 03:21:00,72.2,71.0,30.01,NE,51,0.0,0.0,97,0.00,,,0.00,weatherlink.com 1.10,2013-09-05 08:21:00,
2013-09-05 03:36:00,72.4,72.0,30.01,NE,45,0.0,0.0,97,0.00,,,0.00,weatherlink.com 1.10,2013-09-05 08:36:00,
2013-09-05 03:51:00,72.3,71.0,30.01,NE,45,0.0,0.0,97,0.00,,,0.00,weatherlink.com 1.10,2013-09-05 08:51:00,
2013-09-05 04:06:00,72.2,71.0,30.01,ESE,120,0.0,0.0,97,0.00,,,0.00,weatherlink.com 1.10,2013-09-05 09:06:00,
2013-09-05 04:21:00,72.0,71.0,30.02,ESE,120,0.0,0.0,97,0.00,,,0.00,weatherlink.com 1.10,2013-09-05 09:21:00,
2013-09-05 04:36:00,72.1,71.0,30.02,East,96,0.0,0.0,97,0.00,,,0.00,weatherlink.com 1.10,2013-09-05 09:36:00,
2013-09-05 04:51:00,71.7,71.0,30.02,East,96,0.0,0.0,97,0.00,,,0.00,weatherlink.com 1.10,2013-09-05 09:51:00,
2013-09-05 05:06:00,71.4,71.0,30.02,East,96,0.0,0.0,97,0.00,,,0.00,weatherlink.com 1.10,2013-09-05 10:06:00,
2013-09-05 05:21:00,71.3,70.0,30.03,East,86,0.0,0.0,97,0.00,,,0.00,weatherlink.com 1.10,2013-09-05 10:21:00,
2013-09-05 05:36:00,71.2,70.0,30.03,East,86,0.0,0.0,97,0.00,,,0.00,weatherlink.com 1.10,2013-09-05 10:36:00,
2013-09-05 05:51:00,71.3,70.0,30.04,East,93,0.0,0.0,97,0.00,,,0.00,weatherlink.com 1.10,2013-09-05 10:51:00,
2013-09-05 06:06:00,71.1,70.0,30.04,East,93,0.0,0.0,97,0.00,,,0.00,weatherlink.com 1.10,2013-09-05 11:06:00,
2013-09-05 06:21:00,71.1,70.0,30.05,East,93,0.0,0.0,97,0.00,,,0.00,weatherlink.com 1.10,2013-09-05 11:21:00,
2013-09-05 06:36:00,71.2,71.0,30.05,East,93,0.0,0.0,98,0.00,,,0.00,weatherlink.com 1.10,2013-09-05 11:36:00,
2013-09-05 06:51:00,71.3,71.0,30.05,SE,137,0.0,0.0,98,0.00,,,0.00,weatherlink.com 1.10,2013-09-05 11:51:00,
2013-09-05 07:06:00,71.8,71.0,30.06,SE,136,0.0,0.0,97,0.00,,,0.00,weatherlink.com 1.10,2013-09-05 12:06:00,
2013-09-05 07:21:00,72.5,72.0,30.06,SSE,167,0.0,0.0,97,0.00,,,0.00,weatherlink.com 1.10,2013-09-05 12:21:00,
2013-09-05 07:36:00,74.0,73.0,30.06,SSE,166,0.0,0.0,97,0.00,,,0.00,weatherlink.com 1.10,2013-09-05 12:36:00,
2013-09-05 07:51:00,77.1,75.0,30.07,SSE,166,0.0,0.0,94,0.00,,,0.00,weatherlink.com 1.10,2013-09-05 12:51:00,
2013-09-05 08:06:00,78.1,75.0,30.07,WNW,283,0.0,1.0,91,0.00,,,0.00,weatherlink.com 1.10,2013-09-05 13:06:00,
2013-09-05 08:21:00,78.0,75.0,30.07,North,357,1.0,3.0,90,0.00,,,0.00,weatherlink.com 1.10,2013-09-05 13:21:00,
2013-09-05 08:36:00,78.9,75.0,30.08,NNW,328,1.0,3.0,88,0.00,,,0.00,weatherlink.com 1.10,2013-09-05 13:36:00,
2013-09-05 08:51:00,80.0,76.0,30.08,NNE,30,0.0,4.0,87,0.00,,,0.00,weatherlink.com 1.10,2013-09-05 13:51:00,
2013-09-05 09:06:00,81.5,77.0,30.08,NE,42,0.0,3.0,85,0.00,,,0.00,weatherlink.com 1.10,2013-09-05 14:06:00,
2013-09-05 09:21:00,82.5,77.0,30.08,NNW,333,1.0,3.0,83,0.00,,,0.00,weatherlink.com 1.10,2013-09-05 14:21:00,
2013-09-05 09:37:00,83.8,76.0,30.09,East,86,2.0,6.0,76,0.00,,,0.00,weatherlink.com 1.10,2013-09-05 14:37:00,
2013-09-05 09:52:00,83.9,76.0,30.09,NNE,20,3.0,5.0,76,0.00,,,0.00,weatherlink.com 1.10,2013-09-05 14:52:00,
2013-09-05 10:07:00,84.5,76.0,30.09,North,6,3.0,4.0,75,0.00,,,0.00,weatherlink.com 1.10,2013-09-05 15:07:00,
2013-09-05 10:22:00,85.5,75.0,30.09,NW,321,2.0,4.0,71,0.00,,,0.00,weatherlink.com 1.10,2013-09-05 15:22:00,
2013-09-05 10:37:00,86.2,74.0,30.09,NNE,13,3.0,7.0,66,0.00,,,0.00,weatherlink.com 1.10,2013-09-05 15:37:00,
2013-09-05 10:52:00,86.7,73.0,30.09,SSE,160,0.0,5.0,64,0.00,,,0.00,weatherlink.com 1.10,2013-09-05 15:52:00,
2013-09-05 11:07:00,86.9,74.0,30.09,NE,45,1.0,5.0,66,0.00,,,0.00,weatherlink.com 1.10,2013-09-05 16:07:00,
2013-09-05 11:22:00,88.5,78.0,30.09,SW,217,0.0,4.0,71,0.00,,,0.00,weatherlink.com 1.10,2013-09-05 16:22:00,
2013-09-05 11:37:00,88.6,75.0,30.09,North,10,2.0,5.0,64,0.00,,,0.00,weatherlink.com 1.10,2013-09-05 16:37:00,
2013-09-05 11:52:00,89.1,74.0,30.09,East,83,0.0,7.0,62,0.00,,,0.00,weatherlink.com 1.10,2013-09-05 16:52:00,
2013-09-05 12:07:00,89.3,74.0,30.08,West,280,1.0,7.0,61,0.00,,,0.00,weatherlink.com 1.10,2013-09-05 17:07:00,
2013-09-05 12:22:00,90.0,78.0,30.08,WSW,257,1.0,4.0,67,0.00,,,0.00,weatherlink.com 1.10,2013-09-05 17:22:00,
2013-09-05 12:37:00,89.6,75.0,30.07,NW,315,0.0,2.0,63,0.00,,,0.00,weatherlink.com 1.10,2013-09-05 17:37:00,
2013-09-05 12:52:00,88.7,75.0,30.07,NNW,328,0.0,3.0,64,0.00,,,0.00,weatherlink.com 1.10,2013-09-05 17:52:00,
2013-09-05 13:07:00,87.1,75.0,30.06,WNW,289,1.0,3.0,68,0.00,,,0.00,weatherlink.com 1.10,2013-09-05 18:07:00,
2013-09-05 13:22:00,89.3,75.0,30.06,NNE,32,3.0,5.0,63,0.00,,,0.00,weatherlink.com 1.10,2013-09-05 18:22:00,
2013-09-05 13:37:00,91.1,77.0,30.05,NNE,27,2.0,3.0,63,0.00,,,0.00,weatherlink.com 1.10,2013-09-05 18:37:00,
2013-09-05 13:52:00,90.2,76.0,30.04,NNW,343,2.0,4.0,63,0.00,,,0.00,weatherlink.com 1.10,2013-09-05 18:52:00,
2013-09-05 14:07:00,90.9,75.0,30.03,NE,36,0.0,4.0,60,0.00,,,0.00,weatherlink.com 1.10,2013-09-05 19:07:00,
2013-09-05 14:22:00,91.1,74.0,30.03,NNE,29,0.0,6.0,58,0.00,,,0.00,weatherlink.com 1.10,2013-09-05 19:22:00,
2013-09-05 14:37:00,91.0,75.0,30.02,WNW,288,3.0,4.0,60,0.00,,,0.00,weatherlink.com 1.10,2013-09-05 19:37:00,
2013-09-05 14:52:00,90.7,73.0,30.02,ENE,57,4.0,6.0,57,0.00,,,0.00,weatherlink.com 1.10,2013-09-05 19:52:00,
2013-09-05 15:07:00,92.1,76.0,30.02,NW,309,0.0,3.0,59,0.00,,,0.00,weatherlink.com 1.10,2013-09-05 20:07:00,
2013-09-05 15:22:00,91.3,76.0,30.01,East,93,1.0,5.0,61,0.00,,,0.00,weatherlink.com 1.10,2013-09-05 20:22:00,
2013-09-05 15:37:00,91.2,73.0,30.00,NNW,343,1.0,4.0,56,0.00,,,0.00,weatherlink.com 1.10,2013-09-05 20:37:00,
2013-09-05 15:52:00,91.8,75.0,30.00,NNW,346,0.0,2.0,59,0.00,,,0.00,weatherlink.com 1.10,2013-09-05 20:52:00,
2013-09-05 16:07:00,91.4,75.0,30.00,NNW,329,3.0,4.0,58,0.00,,,0.00,weatherlink.com 1.10,2013-09-05 21:07:00,
2013-09-05 16:22:00,90.9,76.0,30.00,NW,304,0.0,4.0,61,0.00,,,0.00,weatherlink.com 1.10,2013-09-05 21:22:00,
2013-09-05 16:37:00,91.8,76.0,30.00,NE,52,0.0,1.0,60,0.00,,,0.00,weatherlink.com 1.10,2013-09-05 21:37:00,
2013-09-05 16:52:00,90.0,75.0,30.00,NW,317,2.0,5.0,61,0.00,,,0.00,weatherlink.com 1.10,2013-09-05 21:52:00,
2013-09-05 17:07:00,89.0,75.0,30.00,North,1,0.0,1.0,64,0.00,,,0.00,weatherlink.com 1.10,2013-09-05 22:07:00,
2013-09-05 17:22:00,89.7,75.0,30.00,North,4,0.0,2.0,62,0.00,,,0.00,weatherlink.com 1.10,2013-09-05 22:22:00,
2013-09-05 17:37:00,89.4,76.0,30.00,NE,55,0.0,1.0,64,0.00,,,0.00,weatherlink.com 1.10,2013-09-05 22:37:00,
2013-09-05 17:52:00,89.4,77.0,30.00,North,4,0.0,1.0,67,0.00,,,0.00,weatherlink.com 1.10,2013-09-05 22:52:00,
2013-09-05 18:07:00,88.6,78.0,30.00,NNE,16,0.0,0.0,70,0.00,,,0.00,weatherlink.com 1.10,2013-09-05 23:07:00,
2013-09-05 18:22:00,86.5,78.0,30.01,North,9,0.0,0.0,75,0.00,,,0.00,weatherlink.com 1.10,2013-09-05 23:22:00,
2013-09-05 18:37:00,83.8,77.0,30.01,NNE,18,0.0,0.0,81,0.00,,,0.00,weatherlink.com 1.10,2013-09-05 23:37:00,
2013-09-05 18:52:00,82.1,77.0,30.00,NNE,18,0.0,0.0,83,0.00,,,0.00,weatherlink.com 1.10,2013-09-05 23:52:00,
2013-09-05 19:07:00,80.9,76.0,30.01,NNE,22,0.0,0.0,86,0.00,,,0.00,weatherlink.com 1.10,2013-09-06 00:07:00,
2013-09-05 19:22:00,79.6,76.0,30.02,NNE,22,0.0,0.0,87,0.00,,,0.00,weatherlink.com 1.10,2013-09-06 00:22:00,
2013-09-05 19:37:00,78.4,75.0,30.03,NNE,22,0.0,0.0,88,0.00,,,0.00,weatherlink.com 1.10,2013-09-06 00:37:00,
2013-09-05 19:52:00,77.6,75.0,30.03,NNE,22,0.0,0.0,90,0.00,,,0.00,weatherlink.com 1.10,2013-09-06 00:52:00,
2013-09-05 20:07:00,77.3,75.0,30.04,SE,124,0.0,2.0,92,0.00,,,0.00,weatherlink.com 1.10,2013-09-06 01:07:00,
2013-09-05 20:22:00,78.1,75.0,30.04,ENE,69,1.0,1.0,90,0.00,,,0.00,weatherlink.com 1.10,2013-09-06 01:22:00,
2013-09-05 20:37:00,77.9,75.0,30.05,SSE,165,0.0,1.0,91,0.00,,,0.00,weatherlink.com 1.10,2013-09-06 01:37:00,
2013-09-05 20:52:00,77.9,75.0,30.05,West,273,0.0,1.0,89,0.00,,,0.00,weatherlink.com 1.10,2013-09-06 01:52:00,
2013-09-05 21:07:00,77.1,74.0,30.05,East,87,0.0,1.0,91,0.00,,,0.00,weatherlink.com 1.10,2013-09-06 02:07:00,
2013-09-05 21:22:00,76.7,74.0,30.05,ESE,106,0.0,1.0,91,0.00,,,0.00,weatherlink.com 1.10,2013-09-06 02:22:00,
2013-09-05 21:37:00,75.9,74.0,30.06,ESE,105,0.0,0.0,92,0.00,,,0.00,weatherlink.com 1.10,2013-09-06 02:37:00,
2013-09-05 21:52:00,75.2,73.0,30.06,East,85,0.0,0.0,93,0.00,,,0.00,weatherlink.com 1.10,2013-09-06 02:52:00,
2013-09-05 22:07:00,74.8,73.0,30.06,East,86,0.0,1.0,94,0.00,,,0.00,weatherlink.com 1.10,2013-09-06 03:07:00,
2013-09-05 22:22:00,74.3,73.0,30.06,East,86,0.0,0.0,94,0.00,,,0.00,weatherlink.com 1.10,2013-09-06 03:22:00,
2013-09-05 22:37:00,74.0,72.0,30.05,ENE,58,0.0,1.0,94,0.00,,,0.00,weatherlink.com 1.10,2013-09-06 03:37:00,
2013-09-05 22:52:00,73.7,72.0,30.05,ENE,58,0.0,0.0,95,0.00,,,0.00,weatherlink.com 1.10,2013-09-06 03:52:00,
2013-09-05 23:08:00,73.5,72.0,30.05,ENE,58,0.0,0.0,95,0.00,,,0.00,weatherlink.com 1.10,2013-09-06 04:08:00,
2013-09-05 23:23:00,73.5,72.0,30.05,SSE,158,0.0,0.0,95,0.00,,,0.00,weatherlink.com 1.10,2013-09-06 04:23:00,
2013-09-05 23:38:00,73.3,72.0,30.05,SSE,158,0.0,0.0,96,0.00,,,0.00,weatherlink.com 1.10,2013-09-06 04:38:00,
2013-09-05 23:53:00,73.1,72.0,30.05,ESE,108,0.0,1.0,96,0.00,,,0.00,weatherlink.com 1.10,2013-09-06 04:53:00,